Theta_e
312 314 315 316 316 317 317 317 318 319 319 318 319 319 319 318 319 319 316 316 316 316 316 316 317 316 317 316 317 317 318 318 319 319 319 318 316 317 316 315 315 315 314 313 312 314 313 313 312 311 310 311 309 307 308 311 310 310 310 309 308 308 307 305 304 304 304 292 294 293 293 294 291 293 293 291 290 291 290 291 290 289 289 289 290
310 312 312 314 314 315 315 314 315 315 317 317 317 318 318 317 317 314 314 315 313 315 315 315 315 316 316 316 315 316 316 318 317 317 315 315 314 315 314 312 312 312 310 311 309 308 308 308 307 307 307 308 306 306 307 306 305 305 305 304 306 307 306 304 302 302 302 298 294 291 293 294 293 291 292 291 291 289 289 289 288 288 287 288 288
308 308 309 310 310 311 311 311 312 313 314 316 315 316 316 314 311 312 312 311 310 313 313 313 313 314 314 314 315 314 315 315 315 314 314 314 313 313 313 311 310 309 308 308 308 308 306 306 307 306 304 304 304 304 303 303 303 304 305 303 302 303 300 300 299 296 298 298 297 296 292 291 293 291 290 291 291 289 289 289 287 287 287 288 287
302 303 304 306 306 305 307 308 308 310 311 313 313 314 313 311 308 310 310 310 309 308 309 311 311 311 311 311 311 312 312 312 311 310 313 311 310 312 310 309 309 309 309 308 308 305 305 303 303 303 300 301 301 300 301 301 301 301 300 299 298 299 296 293 297 298 294 297 295 293 290 290 289 290 290 289 288 288 289 289 288 287 287 286 286
299 300 300 301 300 302 303 304 306 307 309 309 310 310 308 307 305 308 307 307 308 306 304 305 307 308 308 309 309 309 310 309 310 308 308 308 310 310 309 307 306 306 306 305 301 303 302 302 302 300 299 299 297 296 298 296 297 295 296 295 293 293 292 292 292 293 294 294 294 290 289 290 290 290 288 288 288 287 286 286 286 286 286 286 285
294 296 295 298 299 300 301 301 304 306 307 308 308 307 305 305 305 304 306 308 305 304 305 302 303 305 306 308 309 308 307 307 307 308 306 304 305 306 305 303 302 301 300 300 299 299 300 299 299 298 298 298 299 298 296 296 294 294 293 292 291 291 292 291 291 292 293 294 293 294 291 292 289 288 287 287 287 286 285 285 285 285 285 284 284
291 293 293 295 299 299 299 300 302 303 304 305 304 303 303 303 302 303 301 305 304 302 301 302 301 304 304 305 306 306 305 304 304 305 304 303 303 302 299 298 298 297 297 297 297 297 297 297 296 295 297 297 299 298 295 294 293 293 294 292 291 291 291 291 291 292 292 293 293 293 293 291 290 290 285 286 287 287 286 286 285 285 284 283 283
289 290 291 292 295 298 298 298 299 300 301 301 301 301 301 300 301 301 299 303 303 302 302 302 300 300 302 302 303 301 303 302 302 301 301 301 299 298 297 297 296 294 293 292 292 293 293 293 293 295 296 296 297 297 294 294 293 293 291 291 291 292 291 290 290 291 292 292 292 291 290 290 287 284 284 284 284 285 285 285 285 286 284 283 284
289 290 290 291 293 295 296 296 296 296 296 298 298 299 299 299 298 298 297 299 300 301 302 302 297 296 294 296 297 296 299 301 300 299 298 296 298 298 297 296 294 293 292 291 290 290 291 292 292 292 293 291 290 292 293 294 295 293 291 291 291 292 292 292 291 290 291 291 291 290 289 289 288 286 285 285 286 289 286 284 284 285 285 284 284
289 290 290 291 294 294 294 294 294 295 295 296 298 297 297 297 296 295 296 296 295 293 294 295 297 298 296 293 293 295 297 297 293 294 296 299 297 298 296 294 293 294 293 291 289 290 291 291 291 288 288 287 288 289 290 291 291 295 293 292 291 291 290 289 289 290 290 290 291 291 290 290 290 288 288 288 288 286 284 284 283 284 283 283 283
290 290 291 291 293 294 294 293 294 294 295 296 296 295 296 295 295 295 294 293 293 292 293 294 294 294 296 296 294 294 295 295 291 294 296 296 296 296 296 294 294 293 292 292 291 290 289 290 290 288 287 287 288 288 290 290 290 291 291 290 291 292 289 289 290 290 291 290 291 290 290 290 291 290 288 288 286 285 285 283 283 282 282 281 282
291 291 291 292 293 294 294 293 293 294 294 294 294 294 294 293 294 294 293 292 292 291 292 294 293 292 293 293 294 293 292 291 293 295 295 295 294 297 296 294 292 292 291 291 291 290 290 289 289 289 289 290 290 289 289 289 289 289 290 289 289 290 291 291 290 290 288 290 290 290 289 290 290 289 288 285 285 283 282 282 282 281 281 280 281
291 291 292 293 294 294 294 293 293 293 293 293 293 293 293 293 293 292 293 292 291 292 294 293 293 292 293 293 293 291 291 291 294 294 295 295 294 294 293 292 291 291 290 290 290 290 289 289 289 288 288 285 287 288 288 288 287 288 288 288 288 290 291 291 291 292 289 289 289 289 290 289 288 287 285 284 283 283 281 281 281 281 281 281 282
291 292 293 293 294 294 294 294 293 293 293 293 292 293 293 294 293 292 292 290 292 292 291 292 292 293 293 293 293 292 292 291 293 294 294 294 294 294 294 292 292 291 291 291 291 290 290 290 289 288 287 286 287 287 287 286 286 287 287 287 287 286 288 289 289 288 289 290 289 287 289 287 286 285 282 284 282 281 281 281 281 280 280 280 282
291 292 293 294 294 294 294 293 293 293 293 292 292 293 293 292 291 291 292 291 291 291 291 291 291 291 291 292 292 291 292 291 293 293 293 294 294 294 293 293 292 291 291 290 290 291 291 289 289 288 286 286 286 286 286 286 286 285 285 285 285 285 285 286 287 288 287 287 288 288 287 284 284 283 282 284 283 283 283 281 281 281 280 281 281
291 292 293 293 294 294 293 293 293 293 292 292 292 292 292 292 291 290 291 291 291 290 290 291 290 290 290 290 291 291 292 291 292 292 293 294 294 291 291 291 291 290 290 289 289 289 288 288 288 287 286 286 286 287 286 286 285 285 285 284 284 284 284 284 286 286 286 286 285 284 284 283 283 283 283 283 284 283 282 281 281 280 280 280 279
290 291 292 293 293 294 293 293 293 293 292 291 291 292 291 291 291 290 290 290 290 290 290 290 290 290 289 289 291 291 291 290 291 292 292 293 292 290 290 289 289 289 288 287 287 287 287 287 286 286 285 285 286 288 288 286 284 283 283 282 282 283 284 283 285 286 287 286 286 286 286 286 286 287 288 288 286 283 281 281 280 280 279 278 279
291 291 291 292 293 293 293 293 292 292 291 291 292 292 292 291 291 290 291 290 289 290 291 290 289 289 289 289 291 291 289 289 290 291 292 292 290 289 289 289 287 287 285 285 286 286 285 285 285 285 285 285 286 288 288 285 282 281 281 280 279 279 281 281 281 282 285 285 286 286 286 286 286 286 286 286 287 285 282 280 279 279 279 278 277
290 291 292 292 292 292 293 293 292 292 291 291 291 290 290 290 290 289 290 290 290 289 289 290 289 289 289 290 288 290 289 288 289 290 291 292 290 289 289 288 287 286 285 284 284 284 283 284 284 284 285 285 287 288 288 285 282 281 280 279 278 278 281 280 280 279 279 278 279 281 281 281 282 283 283 284 284 284 283 281 279 279 278 278 277
292 292 292 291 290 291 291 291 292 291 291 290 290 290 289 289 289 289 289 290 290 289 289 289 288 288 288 288 288 290 290 288 288 290 291 291 290 288 288 289 288 286 286 284 282 282 282 282 283 285 286 286 287 288 288 286 284 282 281 279 278 280 281 277 277 279 278 278 277 278 279 279 279 280 279 281 281 282 283 282 280 279 278 277 276
292 291 289 289 289 290 290 290 290 290 290 290 289 289 289 289 289 288 289 289 289 289 288 288 288 288 288 288 288 288 289 288 287 289 291 291 290 289 288 289 288 287 286 284 284 283 282 282 282 284 287 287 288 288 288 288 285 282 281 280 280 281 279 277 278 279 276 275 275 276 277 276 277 277 278 278 279 279 279 280 279 279 278 277 277
290 289 289 289 289 289 289 290 290 290 289 289 289 288 288 288 288 288 289 289 288 288 287 288 289 288 288 287 288 288 287 287 288 288 290 290 290 289 289 289 288 287 285 284 284 284 283 282 282 283 286 286 287 288 288 288 286 282 282 285 285 284 279 277 276 276 276 276 276 276 276 276 276 277 277 277 278 278 278 277 278 278 278 277 278
289 288 288 288 288 288 288 289 289 289 289 289 289 288 288 288 288 288 288 288 288 288 287 287 288 288 287 287 287 287 287 287 287 287 288 290 290 290 289 288 288 287 287 284 284 284 282 281 280 283 285 286 286 288 288 288 286 284 286 287 287 285 279 276 275 275 276 276 276 276 276 275 277 277 277 278 278 277 277 277 277 276 276 276 277
288 288 287 288 288 288 288 288 288 289 289 288 288 288 287 288 288 288 288 289 289 288 289 288 288 288 288 287 287 287 287 287 286 286 287 289 290 290 289 289 288 287 287 287 284 283 281 281 279 283 285 286 287 287 288 285 285 287 287 287 286 281 278 277 277 277 277 277 277 277 278 277 276 277 278 278 278 278 277 276 276 275 276 276 274
287 287 287 287 287 287 287 287 288 288 288 288 288 288 287 287 288 288 288 289 289 289 289 288 288 289 289 288 287 287 286 286 286 286 286 287 289 290 289 289 288 287 285 283 282 281 282 282 283 284 285 286 286 286 286 286 286 285 284 281 279 278 279 279 278 279 278 277 277 277 278 278 278 278 278 278 277 276 276 276 276 275 275 275 274
286 287 287 287 287 287 287 287 287 288 288 288 288 289 288 288 288 288 288 289 289 289 290 289 289 289 289 289 288 287 286 286 286 285 285 286 287 288 288 288 286 286 284 282 282 283 284 284 285 285 284 282 280 278 280 281 281 280 279 277 275 277 280 280 279 278 278 277 277 277 278 278 278 278 277 277 277 277 276 275 275 275 275 275 274
287 286 286 286 286 286 287 287 287 287 287 288 289 289 289 288 288 288 288 289 289 289 290 289 289 289 289 289 289 287 285 285 285 284 285 286 287 287 287 287 285 284 282 282 282 283 283 283 282 281 281 280 280 280 278 278 276 275 273 274 276 278 279 279 279 278 278 278 278 278 279 278 277 277 277 277 276 276 276 275 275 274 274 274 273
286 286 286 286 286 286 287 286 287 287 287 288 288 288 289 289 288 289 288 289 289 289 290 289 289 289 290 290 289 287 286 285 285 285 284 285 286 286 286 285 285 284 281 280 279 280 280 281 280 277 276 275 275 273 273 272 273 273 273 272 273 275 278 280 280 279 278 278 278 278 277 277 276 276 276 276 276 276 275 274 273 273 273 272 271
285 284 285 285 286 286 286 286 287 287 287 288 288 289 289 288 289 289 289 290 291 290 290 290 290 290 291 290 289 287 286 285 285 286 284 285 283 281 282 282 282 282 281 279 276 275 276 276 275 275 275 274 274 274 273 274 272 272 272 273 272 272 274 276 276 277 277 277 277 276 276 276 276 276 276 275 275 274 273 272 272 272 272 273 272
282 284 284 284 284 284 285 286 287 287 287 287 287 288 287 288 289 289 289 288 288 289 289 290 291 291 290 290 290 289 288 287 286 285 285 284 284 283 283 283 282 280 281 281 279 277 276 275 275 275 274 274 274 274 274 274 274 273 273 274 272 273 272 273 274 274 275 276 276 275 275 275 275 275 275 274 274 274 273 274 272 272 272 272 271
284 284 284 284 284 285 285 286 286 287 287 287 287 287 288 288 287 288 289 288 288 288 288 288 289 289 290 289 286 288 286 286 286 285 284 284 284 284 283 283 283 282 283 279 277 276 274 273 271 273 273 274 274 274 274 274 273 273 272 272 272 273 272 272 272 272 272 273 274 275 275 275 274 274 274 274 273 274 273 274 273 272 272 271 271
284 285 284 283 284 285 285 286 286 287 287 287 287 287 287 287 287 286 287 287 287 288 288 288 288 288 288 288 285 285 285 286 285 284 284 284 284 284 284 284 284 284 283 281 276 275 275 273 272 273 274 274 274 274 274 274 275 274 273 272 273 272 272 272 272 271 272 272 273 273 273 273 274 274 274 274 274 273 273 273 273 272 272 272 271
282 282 282 283 283 285 285 286 286 286 286 286 287 287 287 287 285 285 284 285 286 287 288 288 288 288 288 287 287 286 285 285 285 285 284 284 284 284 284 285 285 284 283 278 276 275 275 275 274 274 274 274 274 274 275 275 274 274 273 273 273 272 272 273 273 271 272 273 274 274 274 274 274 274 274 273 273 272 273 272 272 272 272 271 271
279 280 280 281 282 284 285 286 286 286 287 287 287 287 287 287 287 286 283 282 283 284 285 286 287 287 288 287 287 286 286 285 285 285 284 284 285 284 285 284 285 284 281 277 277 275 276 275 275 274 274 274 274 275 274 274 274 273 272 272 272 272 271 271 272 273 273 274 274 274 274 274 274 273 273 273 272 272 271 271 271 270 270 271 270
280 278 278 280 281 283 284 285 286 286 287 287 287 286 286 286 286 285 284 283 282 282 281 282 284 286 286 286 286 286 285 285 285 285 284 285 285 285 285 283 281 280 277 277 277 276 275 275 274 274 274 274 274 274 274 273 272 272 273 273 273 274 274 274 275 275 275 274 274 274 274 273 273 273 272 271 271 270 270 270 270 271 270 270 270
281 282 281 280 280 281 283 285 286 286 287 287 287 286 286 285 285 284 283 283 282 280 277 277 278 282 284 284 285 285 285 285 285 285 285 285 285 285 281 279 277 276 274 275 275 275 275 275 274 274 274 274 274 274 274 273 274 274 274 274 273 273 273 273 273 273 273 273 273 273 273 273 273 272 272 271 271 271 271 271 271 271 271 270 270
281 282 283 283 283 284 284 285 285 286 286 285 285 285 284 284 283 283 282 281 280 279 278 277 279 280 281 280 283 284 284 284 284 285 285 285 285 283 280 278 276 274 273 274 274 273 273 274 274 274 274 273 273 272 272 271 271 270 271 270 270 271 271 271 272 271 271 271 271 271 271 272 272 271 271 270 271 271 271 271 270 270 270 269 269
279 281 282 283 283 283 283 284 284 283 284 284 284 284 283 283 282 281 280 279 278 276 276 277 278 279 278 278 281 282 282 283 283 283 284 284 278 275 275 275 274 273 272 273 273 272 272 272 272 272 271 271 269 269 268 268 268 268 268 269 270 270 271 270 270 269 269 269 269 269 269 269 269 269 269 269 269 269 269 269 268 268 268 268 269
278 279 279 280 281 282 283 282 281 282 282 282 282 282 281 280 280 279 279 277 276 276 276 277 278 277 277 277 278 278 279 278 277 276 274 273 272 272 272 272 272 271 271 270 270 270 270 269 269 269 268 267 267 267 267 267 267 267 268 268 268 269 268 267 267 267 266 266 266 266 267 267 267 268 268 268 267 268 268 268 268 268 268 268 268
277 278 278 279 280 281 281 280 280 280 280 280 280 280 280 279 279 278 277 276 275 275 275 276 276 275 275 275 275 276 276 275 273 271 271 271 270 270 271 270 270 269 268 268 268 268 267 267 267 266 266 266 266 266 266 266 266 266 267 267 266 266 265 265 265 264 264 264 264 265 265 265 266 266 265 266 267 267 267 267 268 268 268 268 268
277 277 276 278 279 280 279 279 279 280 280 279 280 279 279 278 278 277 276 276 275 274 274 275 274 273 273 274 276 276 273 271 270 270 270 269 268 269 269 269 268 267 267 266 266 266 266 265 265 265 265 265 265 265 265 264 264 265 265 265 265 264 264 263 263 263 263 263 263 262 263 263 263 263 263 264 265 266 265 266 266 266 267 267 267
276 277 276 277 277 278 278 277 278 277 278 277 278 278 278 277 277 276 275 274 273 273 273 271 271 271 273 274 273 272 270 268 268 267 267 267 267 267 267 266 266 266 266 266 265 265 265 265 265 265 264 264 264 264 263 263 263 263 263 263 263 263 262 262 262 262 261 261 261 261 261 262 262 263 263 264 264 264 264 265 265 266 266 266 266
275 276 276 276 276 276 277 277 277 277 277 277 277 275 275 276 276 275 274 273 272 272 271 270 269 270 271 271 270 269 267 267 266 266 266 265 265 265 264 264 264 265 265 265 265 265 265 264 264 264 263 263 263 263 263 262 262 262 262 262 262 261 261 262 261 261 261 260 260 261 261 261 261 262 262 262 263 263 263 264 264 265 265 265 265
274 274 274 274 274 274 274 275 274 275 275 274 274 274 274 274 274 273 272 271 271 270 270 269 269 269 268 268 268 267 266 265 265 265 264 264 264 263 263 263 263 263 264 264 264 264 264 263 263 262 262 262 262 262 262 262 262 261 261 261 261 261 261 261 260 260 260 259 260 260 260 260 260 260 260 261 261 261 262 263 263 263 263 263 264
274 273 273 272 272 272 272 272 273 273 272 272 272 272 272 272 272 271 271 270 269 268 268 268 267 267 266 266 266 266 265 265 265 264 264 263 263 263 263 263 263 263 263 263 263 263 263 263 262 262 261 261 261 261 261 261 261 261 261 260 260 261 260 260 260 260 260 259 259 260 260 260 259 259 260 260 261 261 262 261 261 262 262 262 263
273 272 272 271 271 270 270 271 270 271 271 272 271 271 271 271 271 270 270 269 268 267 267 267 266 266 266 265 265 265 265 264 264 264 263 263 263 263 263 262 262 262 262 262 262 262 262 262 262 261 261 260 260 260 260 260 260 260 260 260 260 259 260 260 259 259 259 259 259 259 259 260 260 260 261 261 261 261 260 261 261 262 261 261 262
272 271 271 271 270 270 270 270 270 270 271 270 271 270 270 270 270 269 268 268 267 266 265 265 266 265 265 265 264 264 264 264 263 263 263 263 262 262 262 262 262 261 261 261 261 261 261 261 261 261 261 260 260 259 259 259 259 259 259 259 258 258 258 258 258 258 258 259 260 259 259 260 260 260 260 260 260 260 260 261 261 260 260 261 261
271 270 270 270 270 270 270 270 270 269 270 269 269 269 269 268 268 268 267 266 266 266 265 265 264 264 264 264 264 263 263 263 263 263 262 262 262 262 262 261 261 261 261 261 261 261 261 260 260 260 260 260 259 259 259 258 258 258 258 258 258 257 258 258 258 259 260 260 260 260 260 260 259 259 260 260 259 260 259 259 260 260 260 261 261
270 270 270 270 269 269 269 269 269 269 269 268 268 268 267 267 267 267 266 266 265 265 264 264 264 263 263 263 263 263 263 262 262 262 261 261 261 261 261 261 261 261 260 260 260 260 260 260 260 260 259 259 259 258 258 258 258 257 257 257 258 259 260 260 260 260 261 261 260 260 260 259 259 259 260 260 260 260 260 260 260 260 260 260 260
270 269 269 269 269 269 269 269 269 268 268 268 267 267 266 266 265 265 265 265 264 264 264 263 263 263 263 262 262 262 262 261 261 261 261 261 260 261 260 260 260 260 260 260 259 259 259 259 259 258 258 258 258 258 257 257 257 257 257 257 260 261 261 262 262 262 262 261 261 260 260 259 258 259 259 259 259 259 259 259 259 259 259 259 259
268 268 268 268 268 268 267 267 267 267 267 267 266 266 265 265 264 264 264 263 263 263 263 263 262 262 262 262 262 261 261 261 261 261 260 260 260 260 260 260 260 260 259 259 259 258 258 258 258 258 257 257 257 257 257 257 256 256 257 259 260 261 262 262 261 261 262 262 260 259 259 258 258 258 258 258 258 258 258 258 258 258 258 259 259
Wind_Speed
9 10 9 10 10 12 11 10 10 9 9 9 11 11 10 10 10 10 6 9 8 9 10 10 10 10 10 9 9 8 8 8 7 7 7 7 7 7 6 7 7 6 6 6 5 6 7 7 6 5 4 5 4 3 4 4 5 5 5 4 5 5 5 6 7 8 3 1 1 2 2 4 3 3 4 4 4 5 6 5 6 6 6 6 7
10 10 8 8 10 10 8 6 7 7 9 10 11 11 11 11 10 6 9 8 8 10 10 9 9 9 9 9 8 8 8 8 7 7 7 7 7 6 6 6 7 7 5 6 5 5 5 6 5 5 5 6 4 4 5 5 4 4 5 5 6 6 4 4 5 4 6 2 2 0 1 1 3 3 6 6 6 4 5 5 4 5 4 4 5
7 6 7 8 9 7 6 7 8 9 11 11 11 12 11 9 6 8 8 7 8 9 9 8 8 8 9 8 8 8 8 8 7 7 8 8 7 6 6 6 6 6 6 6 5 5 5 6 6 5 4 4 5 5 4 4 3 4 6 4 5 5 2 4 3 4 5 6 2 2 1 2 4 3 3 3 2 3 4 4 3 2 3 5 4
6 6 6 7 6 6 8 7 9 9 11 11 12 11 9 7 6 7 8 7 9 7 6 7 8 8 8 8 8 8 8 7 7 7 8 8 6 7 6 6 6 6 6 5 6 5 6 5 5 5 4 4 4 4 4 4 4 4 4 4 5 5 2 3 4 4 4 4 2 3 2 3 2 0 0 0 1 1 2 1 3 4 4 4 4
6 6 5 7 6 7 8 8 9 10 11 9 10 8 7 6 6 8 7 8 8 6 6 6 7 8 8 8 8 8 8 7 8 7 7 6 7 7 6 6 6 6 6 5 5 5 5 5 4 4 3 4 4 4 4 4 5 4 5 4 3 2 2 2 2 3 4 6 4 2 1 1 1 0 1 2 1 1 1 3 4 4 5 4 4
4 4 4 6 7 8 9 8 10 11 11 10 10 8 7 7 7 7 8 9 7 7 8 7 8 8 7 8 8 8 8 7 8 8 7 6 5 5 5 5 5 5 4 4 5 4 4 4 4 3 3 4 4 4 3 5 4 5 4 3 3 3 3 3 3 4 5 6 5 5 2 3 1 1 1 2 2 2 3 4 3 4 4 5 5
4 5 5 7 8 10 9 10 9 9 9 8 6 6 7 7 8 8 7 7 7 8 7 8 7 8 8 7 8 7 7 7 7 6 6 5 5 5 5 5 4 3 3 4 4 4 4 3 3 3 4 4 5 5 5 5 5 4 5 4 4 5 4 4 5 6 6 5 4 3 3 1 1 2 1 2 3 4 4 3 4 4 5 6 6
6 6 7 8 9 10 9 7 7 8 6 5 6 6 7 7 8 6 6 8 8 8 8 8 7 7 7 7 7 6 7 7 6 5 5 5 5 4 4 5 4 4 4 3 3 3 3 3 3 4 5 5 5 5 5 6 4 4 3 4 4 5 4 4 4 4 5 4 5 3 3 2 1 1 1 2 2 3 5 4 5 4 3 4 6
7 8 8 10 11 8 6 6 6 6 5 5 6 7 7 7 6 6 7 7 6 7 7 7 7 6 4 5 5 5 6 6 6 6 6 4 4 5 5 5 5 5 4 3 2 2 3 3 3 3 5 5 7 7 6 5 4 4 3 4 5 5 5 5 5 6 4 4 4 2 2 3 3 3 3 3 5 5 1 4 3 3 1 2 4
9 10 11 12 8 6 6 6 6 5 6 7 7 7 6 6 7 6 7 6 6 5 5 5 7 7 6 4 4 5 5 4 6 9 7 7 6 5 5 5 6 5 5 4 3 2 3 4 4 5 6 7 7 7 7 7 6 5 5 5 6 6 4 4 4 4 3 3 4 3 3 4 5 5 5 5 3 1 2 2 3 1 1 3 4
10 10 13 10 7 6 6 6 6 7 8 7 6 7 7 6 7 7 6 6 6 6 6 6 6 6 6 7 6 5 4 5 8 8 9 9 7 6 6 5 4 5 6 6 6 5 4 4 4 5 5 4 5 6 5 5 6 6 5 7 6 7 5 5 4 4 4 5 4 3 5 7 7 4 4 3 2 3 2 2 2 1 3 2 5
11 11 10 8 8 8 7 6 7 8 7 8 7 7 6 7 7 7 6 6 6 5 5 6 5 5 5 5 6 6 5 6 9 10 10 10 9 7 6 6 6 6 6 7 6 6 5 5 4 4 4 5 4 3 2 2 2 2 3 3 5 5 6 5 4 4 4 5 5 5 3 6 4 2 2 1 2 1 2 2 2 3 3 3 2
10 10 8 8 9 8 7 8 8 8 8 7 7 7 8 8 8 8 9 6 5 7 7 6 6 5 6 7 6 6 5 7 10 11 11 12 11 8 5 6 7 7 6 6 6 6 6 6 5 4 3 4 4 3 4 3 2 3 3 3 3 5 5 4 4 4 2 4 4 4 5 2 3 3 2 2 1 1 1 2 2 2 3 3 5
9 9 8 9 8 8 9 9 9 9 8 8 7 8 9 10 7 6 6 6 8 7 6 7 6 7 7 7 6 6 6 9 12 12 12 12 12 10 7 7 7 7 7 8 7 7 7 7 6 6 4 4 3 4 4 5 4 3 2 2 2 2 3 4 3 3 3 3 3 3 1 2 2 1 1 2 2 1 1 2 2 2 3 4 3
8 9 9 9 8 9 10 10 10 9 9 8 8 9 10 8 8 8 8 9 9 9 9 8 8 8 7 7 6 7 8 12 13 13 13 13 13 11 7 7 7 6 6 7 7 7 7 6 6 6 5 4 4 6 5 5 4 3 3 2 1 0 1 1 1 1 1 1 3 3 2 1 2 2 1 2 3 3 1 1 1 1 1 1 1
8 8 10 10 10 10 11 11 10 9 9 9 10 11 10 10 10 8 7 7 6 6 6 8 9 9 8 8 8 9 8 13 14 14 14 13 13 7 7 7 7 6 6 6 6 5 6 6 6 6 6 6 6 8 5 4 3 4 4 3 1 1 1 2 3 2 1 1 1 2 2 2 3 3 2 2 1 1 1 1 1 1 1 2 3
10 10 11 10 11 11 11 11 11 10 10 10 11 11 11 11 9 7 8 8 9 9 10 9 7 9 9 9 10 8 8 11 13 13 13 14 10 5 6 5 6 7 6 6 5 5 6 6 7 7 6 6 6 8 8 6 4 5 5 4 2 1 0 1 2 1 1 2 2 2 3 3 3 4 4 4 2 2 1 0 1 0 1 3 3
11 10 11 12 12 11 10 11 11 11 10 13 13 11 8 6 8 7 10 10 10 10 8 7 7 8 10 10 10 8 7 10 14 13 14 15 12 8 7 6 6 5 5 5 4 4 5 7 6 7 6 5 7 8 9 7 5 5 5 6 5 3 0 0 0 2 3 4 5 4 6 7 7 7 7 8 8 4 0 1 1 0 1 1 3
11 12 14 12 9 8 9 10 10 10 11 12 9 9 9 9 5 5 7 6 6 5 7 7 7 7 8 9 10 11 8 9 14 14 15 16 12 7 7 7 8 6 5 5 3 3 3 4 7 6 5 6 8 7 9 6 4 5 5 6 5 5 3 2 2 1 0 1 2 3 4 5 4 4 5 9 10 5 1 1 1 0 2 2 3
14 10 8 5 6 7 8 9 9 10 11 8 7 7 5 5 7 7 6 5 5 5 6 6 8 7 6 7 9 10 8 8 11 15 15 16 13 9 7 8 8 9 7 7 6 4 4 4 5 7 8 8 8 8 9 9 6 4 4 4 6 5 4 3 2 2 1 2 2 2 2 3 2 4 3 5 4 6 5 3 1 0 1 2 2
8 6 4 5 7 8 8 10 11 10 8 8 6 5 6 7 6 7 7 5 5 6 8 6 6 6 6 7 7 8 8 10 10 15 16 15 13 12 8 8 8 9 9 7 5 6 4 4 4 6 9 9 9 9 10 11 7 5 4 4 3 6 6 3 2 4 3 3 3 2 2 2 2 2 2 2 2 2 2 2 1 0 0 1 3
6 4 6 6 7 8 10 9 9 9 7 7 8 8 6 6 6 7 6 7 8 8 7 7 7 6 6 7 7 7 8 12 10 15 16 17 14 14 9 8 8 9 7 7 7 6 7 7 5 6 8 9 9 11 11 12 11 6 5 5 7 11 5 3 3 3 3 2 2 2 2 3 3 2 2 2 1 2 1 0 0 0 0 1 3
4 5 6 7 8 9 9 10 9 7 8 9 8 8 7 8 8 8 8 8 9 9 9 8 7 7 6 6 6 6 7 8 13 12 16 17 15 12 11 9 10 8 10 9 7 6 5 5 5 7 8 8 9 10 11 11 8 5 8 9 10 11 8 4 4 4 3 2 3 3 2 2 2 2 1 2 1 1 1 0 1 0 1 1 1
4 5 6 7 7 8 7 8 7 7 8 8 9 9 9 9 8 9 9 8 8 9 8 7 7 8 9 7 6 6 5 6 10 14 14 18 15 14 12 11 13 7 6 7 6 7 7 7 5 7 8 8 10 11 9 7 6 9 10 10 11 10 6 4 4 4 3 3 3 3 3 1 0 1 1 1 1 1 1 1 2 1 1 2 2
5 6 7 7 6 6 6 7 8 8 8 9 10 9 9 9 9 8 9 9 9 9 8 8 9 8 7 8 7 6 6 6 6 10 14 15 16 14 13 14 12 10 6 5 8 7 7 9 9 9 9 10 12 11 9 10 11 9 9 9 7 5 5 4 4 4 4 3 3 2 1 0 0 0 1 1 0 1 1 1 1 0 1 1 2
6 8 7 6 7 6 7 7 7 7 8 7 8 7 9 9 9 8 9 9 10 10 9 8 9 8 9 8 8 8 6 7 7 7 9 11 12 15 15 15 13 12 9 9 8 10 12 11 11 11 10 9 8 6 6 5 9 10 10 8 7 6 6 6 5 5 4 3 3 2 1 1 1 0 1 1 1 2 1 1 1 1 1 1 2
6 6 7 6 5 7 8 7 7 7 7 7 7 7 7 8 8 8 9 10 10 10 9 10 10 9 10 10 8 7 9 8 8 7 8 8 7 9 10 10 11 10 8 8 9 8 10 8 7 9 9 11 10 9 7 7 7 5 6 6 6 6 6 6 6 5 5 4 3 3 2 2 1 1 1 1 2 1 1 0 0 1 0 1 1
6 7 7 6 6 7 7 8 9 7 8 9 9 9 8 9 10 11 12 12 11 11 10 11 12 12 11 9 7 7 8 9 9 11 10 9 8 7 7 7 7 7 7 6 7 7 8 9 11 8 7 7 5 3 2 3 3 3 4 5 5 4 6 8 8 6 5 5 4 4 3 3 1 1 0 1 1 1 1 0 1 1 1 0 2
6 6 5 4 6 5 5 5 7 7 7 8 9 9 11 11 12 10 9 9 11 11 11 10 9 8 8 8 10 10 8 11 12 7 8 9 8 7 6 7 7 6 10 14 8 7 7 8 7 7 6 7 6 5 4 4 3 4 5 5 5 6 5 4 6 5 5 5 4 4 3 2 1 0 1 2 2 1 0 0 1 1 1 1 2
4 6 4 4 4 3 4 4 5 5 6 7 7 7 8 10 9 9 8 11 13 11 8 8 6 6 7 8 8 11 10 5 10 14 15 14 14 14 13 12 12 11 15 18 11 9 8 8 7 8 8 7 7 6 6 5 6 4 3 3 4 4 5 5 5 5 5 5 5 4 3 3 1 1 1 2 2 1 1 2 1 1 1 2 3
5 5 3 4 4 4 4 4 4 5 5 5 5 6 5 7 11 13 11 9 12 14 12 9 9 10 8 5 4 7 9 14 16 16 16 15 15 16 15 16 18 18 20 13 8 9 6 8 8 6 7 6 6 6 6 5 6 5 5 4 3 5 4 4 3 4 4 4 4 3 3 3 2 2 2 1 1 1 0 0 1 1 1 2 3
6 5 4 4 4 5 4 4 4 5 4 4 5 5 5 6 5 5 7 9 10 13 13 11 10 11 13 11 8 4 11 16 18 18 18 18 16 16 16 18 19 20 20 14 8 6 6 6 9 6 6 7 6 6 6 6 6 6 6 5 4 3 5 4 4 4 3 3 3 2 2 2 1 1 1 1 0 1 1 2 2 2 2 2 3
6 6 4 4 4 5 5 5 5 5 5 5 5 5 6 6 6 4 1 3 3 9 12 13 12 13 13 13 15 13 12 13 18 19 19 16 14 15 16 18 20 21 19 9 7 6 5 6 6 7 7 6 7 6 6 6 6 5 3 5 5 3 3 3 4 3 3 3 2 1 1 1 1 1 0 0 0 1 2 2 2 2 2 3 3
5 5 4 4 4 4 5 5 5 5 5 5 5 5 5 5 5 5 5 3 1 2 3 4 9 12 13 15 15 13 14 17 18 18 18 18 18 17 17 15 19 21 14 9 6 7 7 8 6 6 6 6 6 6 6 6 6 5 3 3 3 3 4 4 3 3 2 3 2 2 2 2 1 2 1 1 0 0 1 2 2 2 3 4 3
4 5 7 6 4 5 4 4 4 4 4 5 5 6 6 5 5 6 7 7 7 6 2 2 2 2 5 8 11 13 15 16 17 17 18 18 18 20 18 13 13 10 5 3 5 7 8 7 7 6 6 6 6 6 6 5 4 4 5 5 4 4 3 4 3 3 3 3 3 2 2 2 1 1 1 0 0 1 1 2 2 2 2 3 4
6 4 4 5 5 5 4 4 4 4 5 5 5 5 4 5 5 5 5 6 6 6 4 2 1 3 5 5 10 13 15 16 16 16 17 18 19 21 12 10 10 8 6 6 7 7 6 6 6 6 6 6 6 5 5 4 4 4 4 4 5 4 4 4 4 3 3 4 3 3 2 1 1 2 1 1 2 2 2 2 2 2 2 2 3
6 5 3 3 3 3 4 4 3 4 4 3 4 4 4 5 3 5 4 6 6 5 6 6 5 5 4 2 7 9 13 14 15 16 16 17 22 13 7 8 8 8 8 7 6 6 6 6 7 6 6 5 5 5 5 5 5 4 4 3 2 3 3 3 3 3 2 2 2 2 2 2 2 2 1 0 1 2 2 2 2 2 2 4 5
4 5 5 3 3 3 3 4 4 4 4 4 4 4 5 5 5 5 5 6 6 7 7 6 6 7 9 6 5 6 8 11 13 11 12 13 8 6 6 7 8 8 6 6 7 7 7 7 6 7 6 6 5 4 4 3 3 3 3 3 3 3 5 4 4 4 4 4 4 3 3 3 2 2 2 1 1 2 2 3 3 3 4 4 4
3 5 6 6 4 4 3 3 3 4 4 4 4 4 4 5 5 5 4 5 5 6 5 6 6 7 7 7 7 8 11 8 8 7 6 5 5 5 6 6 6 7 7 7 7 7 7 7 6 6 5 4 4 3 3 3 3 3 3 3 4 4 3 2 3 3 3 3 2 2 2 1 1 1 1 1 1 2 3 3 4 4 4 4 4
4 3 4 4 3 3 3 3 4 4 3 4 4 4 5 5 6 6 6 7 6 6 6 6 6 5 5 7 8 8 9 8 8 8 7 6 6 6 7 8 6 7 8 8 7 6 6 5 5 4 4 3 3 3 3 3 3 3 3 3 4 4 3 3 2 2 2 2 2 2 2 2 2 2 2 1 1 2 3 3 3 3 3 4 4
5 4 3 4 4 4 3 3 4 5 5 4 4 4 6 5 5 4 6 6 6 7 6 5 5 4 4 6 8 7 7 8 8 7 7 7 7 8 7 7 8 7 6 6 5 5 5 5 4 4 4 4 4 3 3 3 3 3 3 3 4 4 3 3 3 3 3 3 2 2 2 2 2 1 1 1 2 2 3 3 3 4 4 4 4
4 5 4 4 4 5 5 4 4 4 5 4 6 6 4 4 5 6 5 6 5 6 6 6 5 5 6 10 10 11 8 6 6 7 6 6 7 7 7 7 5 5 5 5 5 5 5 5 4 4 4 4 4 3 3 3 3 3 3 3 3 3 3 3 3 3 3 2 2 2 2 1 1 1 1 2 1 2 2 2 3 3 3 4 4
6 5 5 4 5 6 6 7 6 6 6 6 6 5 4 6 6 5 5 5 6 6 7 7 6 6 7 9 10 11 7 5 4 6 7 6 5 5 5 5 5 5 5 5 4 4 5 5 5 4 4 3 3 3 4 4 4 4 3 3 3 3 3 3 3 3 3 2 2 2 2 1 1 1 2 2 2 2 3 3 3 3 4 4 4
6 5 4 5 5 5 4 5 6 6 6 6 6 4 5 5 6 6 7 7 7 7 8 8 7 8 6 8 8 7 6 6 5 5 5 5 6 6 6 5 5 5 5 5 4 5 5 5 5 5 5 4 3 4 4 3 3 3 3 3 3 4 4 3 3 3 3 2 2 2 1 1 1 1 1 2 2 2 3 3 3 3 4 4 4
5 5 5 5 5 5 5 4 5 5 4 4 5 6 5 7 7 7 8 8 8 8 8 8 7 8 7 7 6 7 6 6 6 6 5 5 7 6 6 5 5 5 5 4 4 5 5 6 6 6 5 4 4 4 4 4 3 2 2 3 3 3 3 3 3 3 2 2 1 1 0 0 0 1 1 2 2 2 3 3 3 4 4 4 4
5 4 3 4 3 3 3 4 3 5 5 6 6 6 6 6 7 8 8 8 9 9 9 9 8 8 7 7 7 6 7 7 6 6 7 6 7 6 6 5 5 5 5 4 5 5 4 4 5 6 5 5 5 4 4 3 3 3 3 2 2 2 2 2 2 2 2 3 2 1 1 1 1 2 2 2 2 3 3 4 4 3 4 4 4
4 4 4 3 4 2 2 3 4 5 5 5 5 7 7 6 6 7 7 8 9 8 7 7 10 9 8 8 8 7 6 6 6 7 7 7 6 5 5 5 5 5 5 5 5 4 5 5 4 6 5 5 5 5 4 3 3 2 2 2 2 3 2 2 2 2 2 2 2 1 1 1 2 1 2 3 3 3 4 4 3 4 4 4 4
3 2 2 2 3 4 4 4 5 4 4 4 5 5 5 6 7 7 7 6 6 8 7 7 7 7 7 7 6 7 6 6 6 6 6 7 7 6 6 6 6 6 5 5 5 5 5 5 5 6 5 5 5 4 4 4 3 3 2 2 2 2 3 4 2 3 3 2 2 3 3 2 2 2 2 3 4 4 4 4 3 3 4 4 4
3 3 3 3 3 4 4 4 4 5 5 4 5 6 6 7 7 8 8 9 9 10 8 7 6 6 6 6 6 6 6 6 7 8 7 7 6 7 6 6 6 5 5 5 5 5 6 6 6 5 5 5 5 4 4 4 3 3 3 2 2 4 5 6 4 3 4 3 3 3 2 2 3 3 4 4 4 4 4 4 4 4 4 4 4
2 3 3 3 2 2 1 2 3 4 3 5 6 7 7 7 8 8 10 10 11 10 7 8 8 7 7 7 7 7 7 7 6 6 6 6 5 5 5 5 5 5 5 5 5 5 5 5 5 4 4 5 4 4 4 3 3 3 2 2 4 5 5 5 6 6 4 2 4 3 2 2 2 2 2 3 4 4 3 3 3 5 5 4 4
2 3 2 3 3 2 5 6 6 6 6 8 9 10 9 9 11 12 13 12 9 7 8 7 5 5 5 4 4 5 5 5 4 5 5 6 6 6 6 6 6 6 5 5 4 5 4 4 4 4 4 3 3 3 3 3 3 2 3 5 5 5 5 5 3 4 6 4 2 3 2 2 2 2 4 4 4 3 5 5 5 4 3 2 3
Wind_Direction
203 215 204 214 212 213 212 206 210 204 201 200 207 215 217 212 215 215 179 199 187 194 202 206 206 206 207 209 211 211 210 213 211 214 216 221 221 220 216 217 224 228 221 229 224 225 227 232 235 228 219 221 216 215 222 229 232 240 242 235 242 239 220 229 244 260 274 53 83 173 193 152 197 191 203 169 197 205 208 203 195 205 208 209 217
208 211 207 211 215 217 212 200 199 194 203 205 211 216 216 214 213 186 199 197 184 200 205 205 202 203 208 209 209 212 213 214 212 213 217 219 222 217 221 217 222 227 215 227 223 220 228 227 227 219 206 210 206 216 225 228 223 238 244 231 241 243 221 217 237 245 260 289 194 314 40 275 208 168 197 196 209 179 206 205 208 205 211 219 227
206 204 205 209 215 210 197 200 195 201 206 210 213 217 217 215 189 194 199 194 197 203 203 198 199 202 207 207 207 210 211 212 211 210 214 214 217 222 217 217 221 227 226 226 227 224 224 224 229 220 212 210 214 218 216 229 220 221 241 223 230 243 204 196 196 228 246 262 261 176 184 201 218 201 210 223 213 170 208 215 208 206 225 228 231
200 198 205 213 208 198 206 204 201 207 211 214 216 218 213 203 181 195 200 195 201 205 198 197 199 203 205 205 206 208 209 209 210 209 210 203 212 221 221 219 220 221 222 224 227 219 218 216 227 219 207 206 219 215 220 221 215 223 239 238 214 230 191 161 197 216 219 249 270 203 193 204 228 46 291 17 90 182 227 216 195 218 212 225 233
199 206 199 207 204 205 211 204 208 212 216 215 219 214 204 193 185 199 197 203 201 188 200 199 201 202 203 202 203 205 206 204 207 209 213 212 210 215 217 215 215 215 216 219 214 205 200 200 215 210 200 208 226 217 213 208 214 201 221 232 219 213 160 168 189 179 211 232 259 267 292 312 16 46 128 169 130 197 188 219 216 218 214 222 221
209 196 195 203 211 213 215 209 214 215 215 216 216 206 195 195 198 205 199 202 192 194 192 197 198 202 203 204 202 203 202 201 202 204 204 202 208 209 208 204 205 198 194 188 179 183 187 199 209 197 191 203 229 233 221 221 197 198 207 207 178 164 172 189 177 194 208 233 226 262 233 227 196 196 187 190 209 227 216 216 228 218 215 230 221
206 203 201 215 216 219 213 214 213 216 215 216 205 198 199 200 197 204 196 199 189 193 197 194 202 199 202 199 202 196 197 195 198 201 193 190 196 198 194 181 171 177 184 184 179 181 183 186 192 183 193 205 221 227 221 213 197 207 202 189 180 166 187 192 188 199 208 216 228 227 255 246 233 246 141 214 222 227 248 240 240 206 208 220 244
202 208 198 215 220 222 218 214 215 219 216 208 204 203 199 198 202 195 184 199 192 189 189 191 195 197 195 192 193 190 189 186 191 200 193 177 167 175 174 170 161 161 162 178 189 183 175 174 187 195 197 205 206 225 213 213 189 203 199 170 168 177 193 188 188 200 207 213 229 217 203 194 136 128 180 193 222 232 214 220 250 240 203 216 231
203 210 209 218 222 219 212 211 212 214 208 204 202 202 200 198 193 190 192 195 187 185 182 179 169 182 179 182 171 174 181 187 176 175 163 156 162 170 176 171 168 167 171 176 187 179 162 174 183 198 205 207 208 206 214 210 177 195 196 168 178 190 190 186 194 189 211 207 245 190 210 223 221 198 205 214 218 254 160 187 245 258 273 255 238
191 213 221 224 219 209 208 202 199 194 197 194 204 197 197 195 187 186 190 181 172 169 168 172 173 174 174 175 170 171 181 170 176 178 175 169 172 172 170 176 171 171 170 162 170 185 175 176 195 196 197 201 207 210 218 215 215 203 182 183 182 182 185 187 196 202 206 225 238 230 237 247 232 200 223 228 228 208 194 199 240 257 248 258 267
214 216 225 214 213 209 201 199 186 196 200 203 200 197 195 186 182 180 175 168 163 162 161 168 182 181 179 177 181 188 181 172 172 174 167 161 158 163 171 181 175 171 169 170 177 180 187 185 177 199 197 193 197 203 204 210 219 225 196 191 187 179 179 194 206 192 203 225 232 224 235 251 260 228 230 243 214 212 236 221 240 249 255 277 289
215 222 228 213 206 210 200 191 193 203 199 204 198 196 183 181 186 180 173 175 173 160 174 181 179 182 177 177 184 184 185 180 173 169 168 168 171 166 166 167 172 176 178 178 176 171 175 179 189 180 199 189 170 169 179 180 184 169 166 176 195 209 208 196 190 200 202 218 229 232 230 250 268 240 245 223 239 224 222 223 219 216 236 241 250
215 222 220 208 211 203 192 193 203 204 203 197 192 185 187 189 188 182 189 181 165 187 196 182 194 188 185 186 191 181 186 184 178 177 174 171 169 155 165 167 170 179 177 174 174 176 170 172 183 195 187 173 158 154 147 155 162 168 165 178 202 223 235 239 230 213 181 219 234 250 232 259 265 259 207 206 162 212 164 221 224 223 235 245 245
210 221 215 215 209 201 197 197 204 204 194 193 188 190 192 198 190 183 170 176 192 196 196 203 201 203 200 197 195 193 197 193 186 183 183 176 170 165 170 174 181 176 175 180 179 176 174 173 183 179 176 167 156 163 175 169 168 154 146 153 178 227 243 244 263 238 217 235 232 245 293 166 254 266 246 157 162 206 184 243 210 225 227 237 302
207 216 219 217 205 203 200 199 205 198 194 191 191 199 199 191 187 188 184 189 191 195 194 197 202 201 201 195 194 200 206 192 188 185 184 181 178 173 173 178 175 179 181 178 175 174 174 174 171 157 158 162 169 179 177 176 156 140 126 128 160 20 0 348 290 294 275 259 247 263 309 263 272 274 213 207 224 238 221 277 238 243 255 305 278
226 217 224 217 209 206 200 202 203 197 193 192 196 203 200 195 193 185 185 194 195 186 201 193 191 191 188 186 187 196 199 189 183 183 180 181 172 166 170 171 168 167 169 168 166 151 145 154 159 152 156 164 187 186 179 154 141 136 125 116 85 30 333 334 331 331 309 270 257 251 257 241 237 254 247 233 265 281 53 77 88 79 312 294 285
227 221 225 222 213 207 203 201 201 198 193 195 204 205 199 199 196 179 191 197 193 197 197 191 185 181 185 189 188 191 189 192 184 181 179 171 158 165 164 161 163 167 166 154 151 146 151 163 158 152 155 167 179 185 175 152 136 136 133 130 109 88 260 353 339 342 295 231 233 235 239 251 266 281 299 290 272 131 107 330 304 292 293 294 300
227 218 223 221 217 207 203 200 201 198 195 204 208 206 202 201 201 188 196 194 199 199 184 185 188 188 184 190 190 183 189 188 184 180 176 172 167 167 168 163 166 158 142 149 149 162 170 171 165 157 163 166 179 182 170 148 144 145 139 133 128 125 161 342 23 14 36 47 41 43 37 31 26 26 18 17 16 124 115 296 322 107 311 308 296
228 217 223 216 206 203 205 203 202 200 204 212 204 201 201 201 188 181 204 197 203 178 186 187 191 195 196 187 186 185 184 187 186 180 179 175 170 167 165 164 162 168 158 158 162 158 169 181 177 173 170 162 176 175 166 145 150 156 154 137 140 154 183 170 155 128 87 51 27 19 28 27 28 31 23 25 27 27 50 52 112 342 304 301 299
232 225 227 199 187 191 197 206 208 204 210 204 198 204 182 177 188 189 197 194 191 189 190 192 191 200 192 192 192 191 178 182 187 183 180 177 171 167 170 168 171 169 173 164 157 175 181 176 184 186 179 173 176 176 170 160 160 159 146 149 145 155 166 159 176 130 99 85 60 39 45 21 22 26 26 26 27 33 43 50 53 28 277 284 276
236 225 200 183 187 194 194 199 206 212 205 198 185 181 184 190 179 186 192 190 186 192 195 194 194 194 195 199 193 197 185 175 187 184 182 178 172 172 179 183 169 167 171 158 173 164 170 181 167 188 178 174 175 179 177 174 162 153 165 160 176 155 136 131 152 117 101 87 70 44 29 22 26 22 27 28 25 20 23 42 55 58 238 266 279
220 194 191 194 191 194 198 203 201 201 192 180 184 193 184 176 182 185 186 188 193 195 192 194 196 193 195 199 204 200 191 184 173 186 183 184 179 180 180 185 167 159 157 163 164 172 169 166 163 186 174 165 168 175 175 176 162 148 175 165 151 148 141 124 118 99 95 79 82 56 29 25 19 19 13 10 14 355 3 355 7 2 262 248 261
208 198 194 196 202 202 201 196 197 189 188 187 188 192 177 178 180 179 188 194 196 197 196 194 193 195 195 204 205 205 197 192 181 178 185 184 184 180 180 169 169 167 162 170 176 160 137 152 161 169 163 157 162 163 166 162 150 165 178 164 164 142 121 121 118 111 101 89 72 55 34 29 25 21 3 13 3 350 337 356 348 336 319 311 293
197 205 211 211 208 206 199 195 190 187 188 183 187 186 186 188 181 183 184 190 197 202 205 195 195 197 199 199 203 204 199 192 190 184 183 186 182 179 176 171 166 173 163 160 154 151 149 154 157 163 156 152 149 148 134 127 147 162 154 148 137 129 125 124 118 114 108 89 74 63 48 41 248 288 0 340 350 336 348 7 355 14 335 322 322
198 219 223 219 211 205 187 188 189 191 189 182 188 191 190 182 189 191 185 190 196 206 205 197 203 206 200 202 201 198 194 196 194 193 187 186 186 180 176 171 166 145 139 127 144 148 146 148 149 148 146 140 128 119 117 122 126 120 115 118 123 123 129 132 128 131 118 99 94 91 124 119 326 288 313 347 342 64 46 29 45 66 98 291 275
221 228 225 214 207 182 186 195 196 193 188 188 194 192 187 187 193 190 193 198 198 202 203 197 206 205 209 208 201 193 184 194 197 189 191 189 186 183 178 174 161 160 143 137 144 138 143 142 138 132 121 111 105 111 115 116 105 100 103 106 115 124 133 135 134 132 127 129 135 136 115 146 139 79 99 101 353 2 43 359 350 340 43 343 340
235 239 232 222 199 187 192 194 188 188 188 190 193 191 188 190 195 196 195 200 203 203 201 200 204 206 211 209 197 180 189 192 191 188 188 184 185 180 173 169 153 130 113 133 135 138 130 127 128 126 123 119 113 118 115 116 102 89 89 84 109 123 131 134 137 133 136 142 147 141 137 110 140 143 54 13 357 355 152 236 281 311 13 338 314
236 241 232 214 207 198 203 193 186 189 192 189 192 194 197 194 198 201 196 197 196 205 203 205 205 206 211 203 190 186 195 198 196 193 187 180 176 168 163 152 149 148 135 123 125 128 126 121 115 112 110 104 103 90 95 99 105 112 107 114 113 119 121 121 122 127 132 140 139 132 134 134 143 124 224 267 274 272 191 221 169 301 292 143 322
247 253 245 221 223 210 207 195 201 196 197 201 208 203 195 196 203 211 211 202 204 202 204 212 211 211 207 199 193 202 196 204 206 170 171 168 159 148 153 152 145 146 152 142 122 112 113 116 126 131 136 132 134 135 139 131 110 112 116 116 122 113 114 124 133 139 143 141 144 144 141 141 145 168 232 276 282 256 179 190 259 177 291 255 290
257 257 250 240 236 212 215 214 212 210 207 206 207 221 222 214 209 207 213 206 216 223 211 218 204 195 202 212 197 204 210 191 131 156 171 167 160 157 157 156 160 152 155 151 139 139 142 140 152 152 151 154 152 154 152 148 144 129 118 120 121 116 114 121 134 142 146 148 147 148 149 148 169 190 233 243 273 260 196 195 247 199 231 294 300
265 264 251 245 235 224 218 220 218 219 219 216 216 219 222 226 222 220 217 203 205 213 216 213 184 186 190 194 176 173 137 141 153 160 168 170 166 161 155 163 163 159 154 143 141 150 150 154 160 158 157 153 153 155 153 145 145 135 139 132 121 121 122 127 146 137 137 141 158 159 163 169 186 202 207 234 242 292 342 282 180 217 245 281 289
267 265 252 245 231 223 216 221 219 217 222 218 219 220 223 228 234 233 236 222 208 207 212 205 189 184 190 176 155 148 155 157 159 166 172 175 170 162 158 161 163 160 162 147 140 161 163 152 159 162 158 155 154 155 154 147 145 143 143 135 137 141 136 145 160 144 154 152 160 164 165 176 180 201 231 270 296 298 301 303 298 278 282 287 278
275 280 279 260 243 225 212 212 211 208 222 219 223 216 221 221 203 193 32 3 246 226 215 208 197 190 188 181 175 167 168 165 165 170 174 173 163 161 158 159 160 162 156 158 162 156 164 158 155 155 157 153 156 157 152 145 145 149 152 141 144 155 148 157 148 146 163 169 160 160 145 150 149 151 197 136 66 340 317 299 289 285 267 262 274
280 281 282 268 248 240 229 224 221 219 211 206 211 218 228 224 218 200 177 166 76 26 1 250 218 198 193 184 183 174 166 170 170 167 167 168 167 158 155 158 162 166 169 169 158 163 160 158 151 152 153 153 154 148 148 151 154 153 145 147 139 136 143 162 154 162 156 162 156 153 139 128 134 127 98 52 347 312 286 277 282 266 276 285 283
276 274 280 277 249 242 231 227 228 225 220 221 218 212 207 201 198 194 196 183 172 168 168 40 25 183 179 178 174 166 165 166 167 166 163 162 157 152 147 155 165 169 156 151 155 156 155 155 150 150 148 148 152 154 156 153 151 150 150 144 142 139 137 144 144 143 138 131 128 133 143 144 148 129 141 171 277 283 269 266 278 281 258 271 293
288 276 266 268 262 254 238 231 223 223 226 226 218 214 208 196 194 193 184 181 174 155 99 90 64 66 129 156 163 163 161 161 162 161 161 159 158 156 162 169 144 157 138 148 146 150 147 144 139 143 145 145 146 146 143 140 135 124 119 119 122 123 123 115 114 107 103 116 117 120 125 135 156 164 185 213 228 240 269 271 267 264 270 278 297
298 289 270 250 248 250 250 241 231 228 226 217 203 205 201 197 192 183 177 176 169 157 140 129 119 90 79 117 151 154 154 151 147 150 155 158 161 159 154 156 152 137 142 147 142 140 137 139 145 138 138 137 135 132 126 123 116 111 104 99 105 99 107 113 110 120 120 109 94 81 78 70 54 39 44 239 295 285 287 292 299 303 298 302 305
289 294 301 282 253 248 241 235 237 225 214 199 203 193 193 192 185 179 173 173 161 153 150 158 155 151 149 153 136 144 142 136 135 143 148 149 142 125 138 141 146 150 143 142 140 137 134 130 133 137 135 133 130 125 120 110 110 108 111 105 106 113 115 106 93 82 81 82 73 60 57 51 41 34 15 29 329 313 305 304 303 289 289 294 290
261 263 273 279 261 244 233 231 218 214 211 203 198 187 189 179 175 173 170 158 155 162 163 163 164 159 149 144 135 131 122 133 147 148 124 101 80 91 104 122 125 128 131 134 133 134 135 133 133 125 120 114 120 115 105 110 105 105 113 120 121 115 100 81 80 70 70 71 71 61 64 42 27 29 23 20 317 297 293 288 283 285 280 283 283
268 259 245 242 237 237 229 225 213 217 212 203 209 198 192 188 184 178 167 163 165 165 168 166 163 153 148 147 146 148 147 147 139 136 130 122 115 115 121 128 131 136 139 137 135 130 124 119 123 119 117 115 107 106 98 111 115 122 120 118 118 106 94 92 92 92 91 80 73 57 53 46 27 29 21 4 335 312 303 302 310 311 305 299 297
256 253 247 234 225 222 218 219 214 213 206 209 206 202 206 194 186 174 169 169 163 161 162 156 137 129 139 147 148 144 133 140 137 135 133 127 127 129 130 133 137 133 127 124 119 121 122 120 118 113 107 106 107 116 119 116 114 107 106 106 109 116 114 108 106 100 88 81 73 68 47 32 13 3 355 323 321 317 315 312 308 299 294 291 289
246 244 235 232 221 215 211 210 214 211 207 203 201 202 194 189 180 174 171 164 158 153 140 126 128 124 124 118 113 110 108 105 109 110 110 115 121 121 119 110 75 96 111 114 123 121 121 118 117 117 118 124 128 128 122 115 117 117 124 123 125 126 122 117 105 99 96 92 75 70 61 30 22 8 348 334 331 316 305 297 293 291 284 286 286
244 238 234 222 217 210 211 210 196 197 197 197 200 189 178 173 170 165 154 152 151 146 143 137 131 118 108 105 102 99 99 101 94 108 120 109 92 91 91 94 94 86 92 96 94 109 116 115 110 111 114 122 131 141 138 139 134 129 123 120 120 124 127 125 120 117 108 106 101 86 72 49 26 30 0 352 341 332 316 306 299 295 297 298 301
250 241 233 223 220 217 210 193 196 198 198 187 172 167 166 160 152 148 149 146 147 144 144 140 137 129 120 113 108 107 110 114 111 105 102 104 108 112 114 110 109 104 102 104 110 112 108 106 111 116 117 117 107 108 109 108 110 118 127 130 132 136 138 138 139 137 135 128 131 119 95 72 28 11 349 323 312 293 285 287 300 310 307 303 301
248 239 227 223 216 203 209 199 189 180 164 158 158 158 157 157 154 151 147 147 141 139 135 136 131 129 124 120 118 119 122 121 120 119 117 121 125 124 123 118 116 115 114 111 109 102 109 123 130 132 128 124 120 114 112 114 111 111 125 139 141 143 145 147 150 145 133 144 160 155 196 200 227 272 270 282 288 290 302 312 313 301 300 299 295
242 237 227 219 213 206 197 193 184 175 175 169 165 160 162 156 153 151 149 146 145 145 144 142 136 125 123 119 119 112 120 121 118 120 128 126 128 129 129 121 118 121 117 114 111 115 115 126 137 139 135 130 128 121 117 112 111 112 111 115 129 134 126 125 125 124 146 159 183 188 213 233 255 250 256 268 281 288 279 279 281 286 288 289 291
246 231 228 216 210 203 196 180 181 182 177 173 166 163 159 157 149 143 145 144 142 140 137 138 140 137 131 130 130 129 126 123 128 133 134 133 125 122 122 121 120 118 118 119 120 121 127 130 130 136 132 130 127 127 129 122 114 113 110 123 123 144 140 139 150 167 170 185 183 181 229 244 250 265 288 293 291 282 280 277 283 285 288 287 282
230 217 210 203 189 189 190 188 185 184 172 173 163 158 149 144 143 143 139 137 134 141 125 110 116 119 121 120 121 124 124 123 118 124 132 139 144 142 139 134 129 129 130 132 136 136 138 139 137 134 129 128 131 132 131 135 130 135 132 142 152 154 168 163 162 185 198 192 198 205 211 227 250 263 265 266 264 265 272 272 282 279 279 275 281
199 195 187 191 190 195 189 190 182 180 174 155 148 148 148 144 145 144 145 142 145 139 133 121 117 108 106 113 113 118 120 118 129 140 141 141 138 140 133 134 137 138 137 137 139 134 135 134 132 129 131 131 133 135 135 140 146 146 156 160 184 197 196 195 193 194 205 194 198 206 218 226 227 231 249 257 262 263 265 269 272 275 277 279 286
183 176 167 166 158 168 164 153 153 153 149 152 147 147 143 138 137 139 139 134 125 119 125 122 122 133 134 138 141 143 143 143 138 136 134 134 132 132 134 136 140 144 144 140 137 136 134 134 132 134 134 137 136 138 143 141 150 160 157 190 206 194 206 220 226 214 204 197 217 220 193 197 212 240 252 259 259 260 263 265 261 267 267 269 269
139 119 123 120 113 111 100 113 141 137 140 143 143 144 140 133 121 123 118 128 131 131 126 125 113 101 94 91 93 110 115 115 111 121 127 133 140 143 147 147 147 144 141 136 134 138 139 137 142 138 137 135 139 137 141 150 147 163 199 204 203 219 220 203 188 237 235 201 162 152 169 190 217 221 251 248 256 254 258 261 255 248 247 251 259